+ View the NASA Portal
+ Center for Near-Earth Object Studies
IMPORTANT:
The SSD Announcement email list is now available. Major changes are coming in the near future, including possible hostname and/or URL changes. To be notified of such changes, subscribe to this email list.
Please visit
this page
for more details.
Don't show this message again
JPL Small-Body Database Browser
Search:
[
help
]
452750 (2006 BE192)
Classification:
Main-belt Asteroid
SPK-ID:
2452750
[
Ephemeris
|
Orbit Diagram
|
Orbital Elements
|
Mission Design
|
Physical Parameters
|
Discovery Circumstances
|
Close-Approach Data
]
[ show orbit diagram ]
Orbital Elements at Epoch 2458600.5 (2019-Apr-27.0) TDB
Reference:
JPL 14
(heliocentric ecliptic J2000)
Element
Value
Uncertainty (1-sigma)
Units
e
.03510123005613573
8.6641e-08
a
3.121293166485863
7.2475e-08
au
q
3.011731936976398
2.4181e-07
au
i
2.454743994158179
9.408e-06
deg
node
179.9544865471248
0.00018646
deg
peri
20.59397262280001
0.00023311
deg
M
87.07293646673362
0.00014294
deg
t
p
2458113.329525664578
(2017-Dec-25.82952566)
0.00079331
TDB
period
2014.189228908764
5.51
7.0153e-05
1.921e-07
d
yr
n
.1787319656132998
6.2251e-09
deg/d
Q
3.230854395995327
7.5019e-08
au
Orbit Determination Parameters
# obs. used (total)
76
data-arc span
4958 days (13.57 yr)
first obs. used
2006-01-30
last obs. used
2019-08-28
planetary ephem.
DE431
SB-pert. ephem.
SB431-N16
condition code
0
norm. resid. RMS
.65888
source
ORB
producer
Otto Matic
solution date
2019-Sep-24 07:57:20
Additional Information
Earth MOID
= 2.00878 au
Jupiter MOID
= 1.72626 au
T_jup
= 3.214
[ show covariance matrix ]
[
Ephemeris
|
Orbit Diagram
|
Orbital Elements
|
Mission Design
|
Physical Parameters
|
Discovery Circumstances
|
Close-Approach Data
]
Physical Parameter Table
Parameter
Symbol
Value
Units
Sigma
Reference
Notes
absolute magnitude
H
16.9
n/a
MPO413517
452750 (2006 BE192)
Discovered 2006-Jan-30 by Spacewatch at Kitt Peak
Reference:
Last Updated:
2016-01-04
[ show close-approach data ]
Alternate Designations
2006 BE192
= 2012 GN18
[
Ephemeris
|
Orbit Diagram
|
Orbital Elements
|
Mission Design
|
Physical Parameters
|
Discovery Circumstances
|
Close-Approach Data
]
2019-Dec-15 23:51 UT
(server date/time)
Site Manager:
Ryan S. Park
Webmaster
:
Alan B. Chamberlin